Other Public Products
Issued by NWS Charleston, SC

Current Version | Previous Version | Graphics & Text | Print | Product List | Glossary On
Versions: 1 2 3 4 5 6 7 8 9 10 11 12 13 14 15 16 17 18 19 20 21 22 23 24 25 26 27 28 29 30 31 32 33 34 35 36 37 38 39 40 41 42 43 44 45 46 47 48 49 50
339
FPUS82 KCHS 230012
OPUCHS

TEST...KCHS/KSAV Gateway Observations...TEST
National Weather Service Charleston SC
800 PM EDT SAT APR 22 2017

NOTE: "fair" indicates few or no clouds below 12,000 feet with no
significant weather and/or obstructions to visibility.

SCZ050-WAZ558-NCZ071-TXZ119-213-PAZ071-DCZ001-FLZ074-172-MI076-
NYZ176-178-MAZ016-IL014-TNZ027-NJZ106-GAZ044-MD014-230100-

...Gateway Observations for Charleston International...

CITY           SKY/WX    TMP DP  RH WIND       PRES   REMARKS
Chas Airport   PTCLDY    74  63  68 S16       29.86R
6HR MIN TEMP:  74; 6HR MAX TEMP:  87;

Seattle        PTSUNNY   58  49  72 SW16G26   29.92R
6HR MIN TEMP:  51; 6HR MAX TEMP:  58; 6HR PCP:  0.07;

Charlotte      CLOUDY    78  54  43 S7        29.82R
6HR MIN TEMP:  78; 6HR MAX TEMP:  85;

Dallas DFW     MOSUNNY   61  44  53 N21       30.09S
6HR MIN TEMP:  58; 6HR MAX TEMP:  64;

Dallas Love    PTSUNNY   62  43  49 N17G25    30.10S
6HR MIN TEMP:  58; 6HR MAX TEMP:  62;

Philladelphia  CLOUDY    53  49  86 N7        29.97F
6HR MIN TEMP:  52; 6HR MAX TEMP:  55; 6HR PCP:  0.06;

Wash National  CLOUDY    54  50  86 NE8       29.98F
6HR MIN TEMP:  54; 6HR MAX TEMP:  57; 6HR PCP:  0.15;

Baltimore      CLOUDY    52  49  89 VRB3      29.98R
6HR MIN TEMP:  52; 6HR MAX TEMP:  55; 6HR PCP:  0.13;

Miami          CLOUDY    78  68  71 E14       29.90R
6HR MIN TEMP:  78; 6HR MAX TEMP:  83;

Detroit        MOCLDY    56  32  40 E7        30.12R
6HR MIN TEMP:  56; 6HR MAX TEMP:  61;

Newark         CLOUDY    55  43  63 NW5       29.96R
6HR MIN TEMP:  55; 6HR MAX TEMP:  56; 6HR PCP:  0.03;

Laguardia      CLOUDY    55  47  74 NW3       29.96R
6HR MIN TEMP:  53; 6HR MAX TEMP:  55; 6HR PCP:  0.04;

J F K          CLOUDY    54  51  90 VRB3      29.97R
6HR MIN TEMP:  52; 6HR MAX TEMP:  56; 6HR PCP:  0.10;

Boston Logan   CLOUDY    43  41  93 N9        29.97R
6HR MIN TEMP:  43; 6HR MAX TEMP:  45; 6HR PCP: TRACE;

Ft. Lauderdale CLOUDY    77  68  73 E13       29.90R
6HR MIN TEMP:  77; 6HR MAX TEMP:  80;

Chicago O`Hare PTCLDY    57  20  23 N9        30.15F
6HR MIN TEMP:  56; 6HR MAX TEMP:  60;

Chicago Midway PTCLDY    55  23  28 NE10      30.15S
6HR MIN TEMP:  54; 6HR MAX TEMP:  58;

Houston Bush   MOSUNNY   67  54  63 N12       29.97S
6HR MIN TEMP:  67; 6HR MAX TEMP:  77;

Houston Hobby  MOSUNNY   68  56  65 NW14      29.95R
6HR MIN TEMP:  68; 6HR MAX TEMP:  83;

Nashville      CLOUDY    55  52  89 NE14      29.89R
6HR MIN TEMP:  54; 6HR MAX TEMP:  59; 6HR PCP:  0.75;

Atlanta        MOCLDY    76  56  49 SW9       29.83S
6HR MIN TEMP:  76; 6HR MAX TEMP:  82;


$$

GAZ044-118-TXZ119-213-NCZ071-DCZ001-MDZ014-506-PAZ021-071-NJZ106-
NYZ176-178-MAZ106-OHZ011-021-055-MIZ076-KYZ091-ILZ014-INZ047-
MNZ060-ONZ431-230100-

...Gateway Observations for Savannah International...

CITY           SKY/WX    TMP DP  RH WIND       PRES   REMARKS
Savannah Arpt  PTCLDY    76  63  64 S14       29.86S
6HR MIN TEMP:  76; 6HR MAX TEMP:  89;

Atlanta        MOCLDY    76  56  49 SW9       29.83S
6HR MIN TEMP:  76; 6HR MAX TEMP:  82;

Charlotte      CLOUDY    78  54  43 S7        29.82R
6HR MIN TEMP:  78; 6HR MAX TEMP:  85;

Dallas DFW     MOSUNNY   61  44  53 N21       30.09S
6HR MIN TEMP:  58; 6HR MAX TEMP:  64;

Houston Bush   MOSUNNY   67  54  63 N12       29.97S
6HR MIN TEMP:  67; 6HR MAX TEMP:  77;

Wash National  CLOUDY    54  50  86 NE8       29.98F
6HR MIN TEMP:  54; 6HR MAX TEMP:  57; 6HR PCP:  0.15;

Wash Dulles    CLOUDY    51  47  86 NW8       29.99R
6HR MIN TEMP:  50; 6HR MAX TEMP:  53; 6HR PCP:  0.26;

Baltimore      CLOUDY    52  49  89 VRB3      29.98R
6HR MIN TEMP:  52; 6HR MAX TEMP:  55; 6HR PCP:  0.13;

Philadelphia   CLOUDY    53  49  86 N7        29.97F
6HR MIN TEMP:  52; 6HR MAX TEMP:  55; 6HR PCP:  0.06;

Newark         CLOUDY    55  43  63 NW5       29.96R
6HR MIN TEMP:  55; 6HR MAX TEMP:  56; 6HR PCP:  0.03;

Laguardia      CLOUDY    55  47  74 NW3       29.96R
6HR MIN TEMP:  53; 6HR MAX TEMP:  55; 6HR PCP:  0.04;

J F K          CLOUDY    54  51  90 VRB3      29.97R
6HR MIN TEMP:  52; 6HR MAX TEMP:  56; 6HR PCP:  0.10;

Boston         CLOUDY    43  41  93 N9        29.97R
6HR MIN TEMP:  43; 6HR MAX TEMP:  45; 6HR PCP: TRACE;

Pittsburg      CLOUDY    53  37  54 N7        30.04R
6HR MIN TEMP:  50; 6HR MAX TEMP:  54;

Akron          MOCLDY    49  32  52 NE9       30.08R
6HR MIN TEMP:  49; 6HR MAX TEMP:  55;

Cleveland      MOCLDY    50  34  54 N5        30.13R
6HR MIN TEMP:  49; 6HR MAX TEMP:  52;

Cincinnati     PTCLDY    54  35  48 NE14      30.01R
6HR MIN TEMP:  50; 6HR MAX TEMP:  56;

Columbus       PTCLDY    51  36  55 NE13      30.04S
Detroit        MOCLDY    56  32  40 E7        30.12R
6HR MIN TEMP:  56; 6HR MAX TEMP:  61;

Chicago O`Hare PTCLDY    57  20  23 N9        30.15F
6HR MIN TEMP:  56; 6HR MAX TEMP:  60;

Minneapolis    MOSUNNY   67  34  29 W12       30.12F
6HR MIN TEMP:  65; 6HR MAX TEMP:  69;

Indianapolis   MOCLDY    54  33  45 NE18      30.05R
6HR MIN TEMP:  51; 6HR MAX TEMP:  58;

Toronto Canada PTCLDY    52  30  43 N12G17    30.07R

$$




USA.gov is the U.S. government's official web portal to all federal, state and local government web resources and services.